Back to catalog

GOES 18

AliveWeatherGEO
NORAD 51850·PAYLOAD·🇺🇸 United States

Launched Mar 1, 2022 from Cape Canaveral Space Force Station

Loading…

TLE

FreshSource: Space-Track

Epoch: Sep 14, 2026, 13:35 UTC

1 51850U 22021A   26257.56651044  .00000089  00000-0  00000-0 0  9996
2 51850   0.0422 336.5724 0000213 246.5225 197.4034  1.00270531  7487

Track GOES 18 in real time with AllMySat

Download on the App Store